GW3416 Weather Reports


time (UTC)temp
C
wind
direction
speed
KPH
gust
KPH
rain 1hr
cm
rain 24hr
cm
rain mn
cm
humidity
%
barometer
mb
20260509064540 15 219 1.6 6.4 0.08 1.55 0.48 91 1004.7
20260509063542 15 214 0.0 3.2 0.05 1.52 0.46 90 1004.5
20260509062519 15 317 1.6 3.2 0.05 1.52 0.46 90 1004.4
20260509061520 15 295 0.0 3.2 0.03 1.50 0.46 90 1004.3
20260509060519 15 236 1.6 4.8 0.05 1.52 0.43 89 1004.2
20260509055540 15 269 1.6 3.2 0.05 1.57 0.43 89 1004.2
20260509054519 15 271 1.6 4.8 0.03 1.57 0.41 89 1004.3
20260509053516 16 239 0.0 3.2 0.03 1.60 0.41 88 1004.2
20260509052516 16 256 3.2 8.0 0.03 1.68 0.41 88 1004.2
20260509051537 16 246 4.8 16.1 0.03 1.75 0.41 88 1004.2
20260509050520 16 282 3.2 11.3 0.00 1.73 0.38 88 1004.2
20260509045520 16 290 3.2 8.0 0.00 1.73 0.38 88 1004.2
20260509044520 16 195 1.6 3.2 0.00 1.73 0.38 88 1004.2
20260509043601 16 245 1.6 6.4 0.00 1.73 0.38 88 1004.3
20260509042520 16 258 1.6 8.0 0.03 1.73 0.38 87 1004.3
20260509041520 17 212 1.6 3.2 0.03 1.73 0.38 87 1004.3
20260509040520 16 0.0 0.0 0.03 1.73 0.38 86 1004.3
20260509035521 17 224 0.0 3.2 0.03 1.73 0.38 85 1004.5
20260509034518 17 227 1.6 4.8 0.03 1.73 0.38 85 1004.8
20260509033521 17 267 3.2 6.4 0.03 1.73 0.38 84 1004.8
20260509032521 17 319 3.2 9.7 0.00 1.70 0.36 83 1005.2
20260509031518 17 268 1.6 6.4 0.00 1.70 0.36 83 1005.1
20260509030519 17 242 4.8 12.9 0.00 1.70 0.36 82 1005.2
20260509025518 18 270 4.8 12.9 0.00 1.70 0.36 81 1005.1
20260509024519 18 247 4.8 12.9 0.00 1.70 0.36 80 1004.9
20260509023522 18 285 4.8 14.5 0.00 1.70 0.36 79 1005.0
20260509022542 18 245 3.2 12.9 0.00 1.70 0.36 80 1005.0
20260509021518 18 262 4.8 11.3 0.00 1.70 0.36 80 1005.0
20260509020520 18 240 3.2 8.0 0.00 1.70 0.36 78 1005.1
20260509015519 18 283 3.2 9.7 0.00 1.70 0.36 78 1005.0
20260509014538 18 271 4.8 9.7 0.00 1.70 0.36 78 1004.9
20260509013518 18 253 3.2 9.7 0.00 1.70 0.36 79 1004.9
20260509012517 18 293 3.2 9.7 0.00 1.70 0.36 79 1005.1
20260509011516 18 247 4.8 12.9 0.00 1.70 0.36 80 1005.2
20260509010520 17 303 3.2 9.7 0.13 1.70 0.36 84 1005.4
20260509005518 17 240 3.2 11.3 0.13 1.70 0.36 86 1005.6
20260509004519 16 235 3.2 8.0 0.13 1.70 0.36 87 1005.9
20260509003520 17 266 4.8 12.9 0.13 1.70 0.36 87 1006.1
20260509002520 17 268 4.8 11.3 0.13 1.70 0.36 88 1006.4
20260509001602 18 275 4.8 9.7 0.13 1.70 0.36 84 1006.7
20260509000519 19 254 3.2 9.7 0.00 1.55 0.23 78 1006.5
20260508235518 18 226 3.2 8.0 0.00 1.55 0.23 80 1006.7
20260508234517 18 254 4.8 12.9 0.00 1.55 0.23 82 1006.9
20260508233520 18 263 4.8 11.3 0.00 1.55 0.23 83 1007.1
20260508232519 18 273 4.8 11.3 0.00 1.55 0.23 84 1007.0
20260508231519 17 255 3.2 8.0 0.00 1.55 0.23 87 1007.1
20260508230518 17 252 4.8 9.7 0.05 1.55 0.23 89 1007.2
20260508225518 16 256 3.2 9.7 0.08 1.55 0.23 90 1007.3
20260508224519 16 247 1.6 4.8 0.08 1.55 0.23 91 1007.4
20260508223540 15 249 3.2 8.0 0.15 1.55 0.23 91 1007.5
20260508222519 15 247 4.8 8.0 0.15 1.55 0.23 91 1007.6
20260508221518 16 255 6.4 16.1 0.15 1.55 0.23 91 1007.8
20260508220539 16 233 3.2 9.7 0.13 1.52 0.18 91 1007.6
20260508215539 16 256 3.2 9.7 0.10 1.50 0.15 90 1007.5
20260508214540 17 245 4.8 9.7 0.10 1.50 0.15 92 1007.7
20260508213519 17 301 3.2 8.0 0.00 1.40 0.05 94 1007.5
20260508212516 16 287 3.2 6.4 0.00 1.40 0.05 95 1007.6
20260508211516 16 302 3.2 6.4 0.00 1.40 0.05 95 1007.6
20260508210541 16 294 3.2 4.8 0.00 1.40 0.05 95 1007.6
20260508205522 16 314 4.8 6.4 0.00 1.40 0.05 96 1007.6
20260508204522 15 299 4.8 8.0 0.00 1.40 0.05 96 1007.6
20260508203543 15 304 3.2 6.4 0.00 1.40 0.05 96 1007.5
20260508202521 15 294 0.0 3.2 0.00 1.40 0.05 96 1007.5
20260508201522 15 301 3.2 8.0 0.00 1.40 0.05 96 1007.5
20260508200522 13 27 0.0 1.6 0.00 1.40 0.05 96 1007.3
20260508195542 13 215 0.0 0.0 0.00 1.40 0.05 96 1007.3
20260508194523 13 0.0 0.0 0.00 1.40 0.05 95 1007.2
20260508193522 13 229 0.0 1.6 0.00 1.40 0.05 95 1007.1
20260508192522 13 0.0 0.0 0.00 1.40 0.05 95 1007.1
20260508191522 13 0.0 0.0 0.00 1.40 0.05 95 1007.1
20260508190522 13 243 0.0 3.2 0.00 1.40 0.05 95 1007.1
20260508185523 14 230 1.6 1.6 0.00 1.40 0.05 95 1007.0
20260508184522 14 0.0 0.0 0.05 1.40 0.05 95 1006.9
20260508183523 15 271 0.0 1.6 0.05 1.40 0.05 95 1006.9
20260508182523 15 286 0.0 1.6 0.05 1.40 0.05 95 1006.9
20260508181523 15 273 1.6 3.2 0.05 1.40 0.05 95 1006.9
20260508180604 15 284 1.6 6.4 0.05 1.40 0.05 95 1006.9
20260508175543 15 231 0.0 1.6 0.05 1.40 0.05 95 1006.9
20260508174603 15 0.0 0.0 0.00 1.35 0.03 95 1006.8
20260508173523 15 273 0.0 1.6 0.00 1.35 0.03 95 1006.8
20260508172524 15 260 0.0 3.2 0.00 1.35 0.03 95 1006.8
20260508171523 15 262 0.0 1.6 0.00 1.35 0.03 95 1006.8
20260508170544 15 0.0 0.0 0.00 1.35 0.03 95 1006.8
20260508165524 15 283 1.6 4.8 0.00 1.35 0.03 95 1006.7
20260508164524 15 286 1.6 3.2 0.00 1.35 0.03 95 1006.7
20260508163545 15 318 1.6 4.8 0.00 1.35 0.03 95 1006.7
20260508162524 15 288 0.0 3.2 0.00 1.35 0.03 95 1006.8
20260508161524 15 300 0.0 1.6 0.00 1.35 0.03 95 1006.9
20260508160524 14 308 0.0 3.2 0.00 1.35 0.03 95 1007.0
20260508155525 14 264 0.0 1.6 0.00 1.35 0.03 95 1007.0
20260508154526 14 0.0 0.0 0.00 1.35 0.03 95 1007.0
20260508153525 14 0.0 0.0 0.00 1.35 0.03 95 1007.1
20260508152525 14 0.0 0.0 0.00 1.35 0.03 94 1007.0
20260508151525 14 0.0 0.0 0.00 1.35 0.03 94 1007.1
20260508150525 15 279 0.0 1.6 0.00 1.35 0.03 94 1007.2
20260508145525 15 280 0.0 3.2 0.00 1.35 0.03 94 1007.4
20260508144525 15 260 1.6 4.8 0.00 1.35 0.03 94 1007.5
20260508143527 14 248 1.6 8.0 0.00 1.35 0.03 94 1007.5
20260508142525 14 270 0.0 1.6 0.00 1.35 0.03 94 1007.5
20260508141526 14 210 0.0 3.2 0.00 1.35 0.03 94 1007.6
20260508140526 15 214 0.0 3.2 0.00 1.35 0.03 94 1007.8
20260508135526 15 241 1.6 3.2 0.00 1.35 0.03 94 1007.9
20260508134526 15 246 1.6 1.6 0.00 1.35 0.03 94 1007.8
20260508133547 15 248 0.0 3.2 0.00 1.35 0.03 94 1007.9
20260508132527 15 232 1.6 4.8 0.00 1.35 0.03 94 1007.9
20260508131526 15 226 0.0 1.6 0.00 1.35 0.03 94 1007.8
20260508130527 15 247 1.6 3.2 0.00 1.35 0.03 94 1007.8
20260508125547 15 356 0.0 0.0 0.03 1.35 0.03 93 1007.7
20260508124628 15 275 1.6 3.2 0.05 1.35 0.03 93 1007.9
20260508123526 15 233 1.6 3.2 0.05 1.35 0.03 93 1008.0
20260508122527 15 224 1.6 3.2 0.05 1.35 0.03 93 1008.3
20260508121527 15 286 3.2 6.4 0.08 1.35 0.03 93 1008.5
20260508120523 15 252 4.8 9.7 0.18 1.35 0.03 93 1008.3
20260508115517 15 262 4.8 11.3 0.25 1.35 1.35 93 1008.6
20260508114529 15 260 3.2 6.4 0.23 1.30 1.30 93 1008.6
20260508113522 16 274 3.2 8.0 0.23 1.30 1.30 93 1008.5
20260508112524 16 269 4.8 9.7 0.23 1.30 1.30 93 1008.5
20260508111523 17 252 6.4 12.9 0.20 1.27 1.27 92 1008.7
20260508110523 17 238 4.8 11.3 0.13 1.17 1.17 92 1008.4
20260508105529 17 265 1.6 3.2 0.03 1.07 1.07 92 1008.0
20260508104528 17 303 1.6 3.2 0.00 1.07 1.07 92 1008.2
20260508103530 17 349 1.6 4.8 0.00 1.07 1.07 92 1008.2
20260508102528 17 357 1.6 3.2 0.05 1.07 1.07 92 1008.4
20260508101528 17 305 0.0 3.2 0.13 1.07 1.07 92 1008.5
20260508100549 17 294 0.0 1.6 0.15 1.07 1.07 92 1008.5
20260508095530 17 288 0.0 1.6 0.18 1.07 1.07 91 1008.7
20260508094529 17 312 0.0 1.6 0.23 1.07 1.07 91 1008.9
20260508093530 17 6 3.2 4.8 0.25 1.07 1.07 91 1008.8
20260508092529 17 18 1.6 4.8 0.25 1.02 1.02 91 1008.9
20260508091549 17 10 3.2 4.8 0.28 0.94 0.94 91 1009.1
20260508090530 17 350 1.6 3.2 0.36 0.91 0.91 91 1009.2
20260508085549 17 320 0.0 1.6 0.36 0.89 0.89 91 1009.3
20260508084550 17 340 1.6 4.8 0.36 0.84 0.84 90 1009.4
20260508083530 17 356 3.2 4.8 0.41 0.79 0.79 90 1009.5
20260508082529 17 354 3.2 6.4 0.41 0.76 0.76 90 1009.5
20260508081539 17 356 4.8 11.3 0.36 0.66 0.66 90 1009.5
20260508080521 17 349 6.4 11.3 0.25 0.56 0.56 90 1009.5
20260508075529 17 7 3.2 8.0 0.25 0.53 0.53 90 1009.6
20260508074519 17 344 4.8 9.7 0.20 0.48 0.48 90 1009.8
20260508073519 17 359 4.8 12.9 0.10 0.38 0.38 90 1009.5
20260508072520 17 359 4.8 11.3 0.05 0.33 0.33 90 1009.9
20260508071520 17 352 6.4 14.5 0.05 0.30 0.30 90 1010.0
20260508070541 17 2 4.8 11.3 0.05 0.28 0.28 90 1009.9
20260508065520 17 9 4.8 9.7 0.08 0.28 0.28 90 1010.2